Location: Azul
(36.7830°S, 59.8500°W)
Time: 19:31:20
(UTC-03:00)

First-Move - Pass Details

Date: 28 October 2021
Orbit: 575 x 664 km, 97.6° (Epoch: 07 December)

Event Time Altitude Azimuth Distance (km) Brightness Sun altitude
Rises 03:22:12 0° 65° (ENE) 2,955 ? -27.6°
Reaches altitude 10° 03:26:02 10° 100° (E) 2,077 ? -27.0°
Maximum altitude 03:27:21 11° 117° (ESE) 2,007 ? -26.8°
Drops below altitude 10° 03:28:41 10° 134° (SE) 2,096 ? -26.6°
Sets 03:32:36 0° 167° (SSE) 3,033 ? -26.1°
